ARG1220 SAEZ-SBSV

Flight info

Callsign ARG1220
Flight time 3h 44m
Altitude 41000
Route DORVO1J DORVO UN857 ITBEB UM540 ANISE UZ23 EDNOB
Aircraft A332/H-SDE3GHIJ2J3J5M1RVWXYZ/LB2D1

Departure

Time 2026-04-30 17:41
Airport Ezeiza International Airport - Ministro Pistarini (SAEZ)

Arrival

Time 2026-04-30 21:26
Airport Deputado Luiz Eduardo Magalhães International Airport (SBSV)
Time Latitude Longitude Altitude Speed Heading
2026-04-30 17:39 -34.78882 -58.65342 7569 ft 287 kts 199°
2026-04-30 17:41 -34.82345 -58.47190 12859 ft 380 kts 80°
2026-04-30 17:42 -34.81604 -58.40764 14280 ft 392 kts 81°
2026-04-30 17:42 -34.80490 -58.30644 16144 ft 412 kts 81°
2026-04-30 17:43 -34.79723 -58.23648 17493 ft 422 kts 81°
2026-04-30 17:44 -34.78529 -58.12810 19215 ft 439 kts 81°
2026-04-30 17:44 -34.77291 -58.01665 20886 ft 452 kts 80°
2026-04-30 17:46 -34.75117 -57.82320 23556 ft 471 kts 79°
2026-04-30 17:47 -34.73290 -57.66294 25165 ft 489 kts 79°
2026-04-30 17:48 -34.70286 -57.50251 26900 ft 484 kts 54°
2026-04-30 17:48 -34.64199 -57.40642 28134 ft 482 kts 42°
2026-04-30 17:49 -34.55405 -57.28211 29803 ft 491 kts 43°
2026-04-30 17:50 -34.46550 -57.15456 31196 ft 500 kts 43°
2026-04-30 17:51 -34.39787 -57.05716 32218 ft 507 kts 43°
2026-04-30 17:52 -34.33023 -56.95999 33633 ft 502 kts 42°
2026-04-30 17:53 -34.21810 -56.79971 35565 ft 496 kts 42°
2026-04-30 17:54 -34.12914 -56.67329 36825 ft 496 kts 42°
2026-04-30 17:55 -34.03985 -56.54678 38069 ft 495 kts 42°
2026-04-30 17:56 -33.95060 -56.42078 39106 ft 494 kts 42°
2026-04-30 17:57 -33.88397 -56.32702 39733 ft 494 kts 42°
2026-04-30 17:58 -33.81670 -56.23310 40284 ft 494 kts 41°
2026-04-30 17:59 -33.72723 -56.10817 41002 ft 495 kts 42°
2026-04-30 18:00 -33.63679 -55.98188 41055 ft 499 kts 42°
2026-04-30 18:01 -33.52390 -55.82489 41055 ft 498 kts 42°
2026-04-30 18:02 -33.39546 -55.64716 41059 ft 499 kts 41°
2026-04-30 18:04 -33.25164 -55.44918 41062 ft 499 kts 41°
2026-04-30 18:06 -33.07734 -55.21066 41058 ft 497 kts 41°
2026-04-30 18:08 -32.91772 -54.99364 41059 ft 497 kts 41°
2026-04-30 18:10 -32.73496 -54.74671 41057 ft 498 kts 41°
2026-04-30 18:11 -32.57462 -54.53144 41075 ft 498 kts 41°
2026-04-30 18:13 -32.45987 -54.37815 41070 ft 499 kts 40°
2026-04-30 18:14 -32.34460 -54.22477 41076 ft 499 kts 40°
2026-04-30 18:15 -32.20774 -54.03945 41063 ft 500 kts 41°
2026-04-30 18:16 -32.11645 -53.91620 41076 ft 501 kts 41°
2026-04-30 18:17 -32.07055 -53.85441 41079 ft 501 kts 41°
2026-04-30 18:18 -32.00160 -53.76187 41081 ft 501 kts 41°
2026-04-30 18:18 -31.95560 -53.70030 41078 ft 501 kts 41°
2026-04-30 18:19 -31.90984 -53.63914 41064 ft 501 kts 41°
2026-04-30 18:19 -31.86372 -53.57760 41080 ft 501 kts 41°
2026-04-30 18:20 -31.81755 -53.51609 41074 ft 501 kts 41°
2026-04-30 18:20 -31.77137 -53.45466 41093 ft 502 kts 40°
2026-04-30 18:21 -31.72542 -53.39363 41081 ft 502 kts 40°
2026-04-30 18:21 -31.67918 -53.33233 41079 ft 501 kts 40°
2026-04-30 18:22 -31.63291 -53.27109 41077 ft 502 kts 40°
2026-04-30 18:22 -31.56338 -53.17924 41083 ft 502 kts 40°
2026-04-30 18:23 -31.51730 -53.11849 41058 ft 502 kts 40°
2026-04-30 18:23 -31.47085 -53.05737 41086 ft 502 kts 40°
2026-04-30 18:24 -31.40110 -52.96576 41086 ft 502 kts 40°
2026-04-30 18:25 -31.35483 -52.90512 41089 ft 503 kts 40°
2026-04-30 18:25 -31.28494 -52.81364 41085 ft 503 kts 40°
2026-04-30 18:26 -31.21500 -52.72222 41089 ft 503 kts 40°
2026-04-30 18:27 -31.14514 -52.63126 41085 ft 504 kts 40°
2026-04-30 18:28 -31.07485 -52.53996 41088 ft 504 kts 40°
2026-04-30 18:28 -31.00447 -52.44876 41089 ft 505 kts 40°
2026-04-30 18:29 -30.91075 -52.32765 41089 ft 505 kts 40°
2026-04-30 18:30 -30.81557 -52.20773 41092 ft 504 kts 39°
2026-04-30 18:31 -30.74391 -52.11870 41092 ft 505 kts 39°
2026-04-30 18:32 -30.67199 -52.02926 41083 ft 505 kts 39°
2026-04-30 18:33 -30.59990 -51.93975 41086 ft 506 kts 39°
2026-04-30 18:33 -30.52806 -51.85071 41107 ft 506 kts 39°
2026-04-30 18:34 -30.45579 -51.76138 41100 ft 506 kts 39°
2026-04-30 18:35 -30.40826 -51.70085 41101 ft 509 kts 40°
2026-04-30 18:35 -30.36175 -51.63981 41101 ft 509 kts 40°
2026-04-30 18:36 -30.29146 -51.54774 41094 ft 509 kts 40°
2026-04-30 18:37 -30.22072 -51.45578 41097 ft 510 kts 40°
2026-04-30 18:37 -30.17382 -51.39498 41078 ft 510 kts 40°
2026-04-30 18:38 -30.12658 -51.33381 41060 ft 510 kts 40°
2026-04-30 18:38 -30.07932 -51.27271 41054 ft 510 kts 40°
2026-04-30 18:39 -30.03196 -51.21160 41048 ft 511 kts 40°
2026-04-30 18:39 -29.98489 -51.15096 41047 ft 511 kts 40°
2026-04-30 18:40 -29.93742 -51.09005 41075 ft 510 kts 40°
2026-04-30 18:40 -29.88992 -51.02925 41076 ft 510 kts 40°
2026-04-30 18:41 -29.84238 -50.96849 41084 ft 511 kts 40°
2026-04-30 18:41 -29.79511 -50.90816 41089 ft 511 kts 40°
2026-04-30 18:42 -29.74753 -50.84752 41096 ft 510 kts 40°
2026-04-30 18:42 -29.67606 -50.75661 41099 ft 511 kts 40°
2026-04-30 18:45 -29.42390 -50.47757 41123 ft 497 kts 27°
2026-04-30 18:45 -29.39653 -50.45424 41115 ft 497 kts 27°
2026-04-30 18:46 -29.34105 -50.40704 41121 ft 497 kts 27°
2026-04-30 18:46 -29.28563 -50.35973 41126 ft 497 kts 27°
2026-04-30 18:47 -29.23017 -50.31230 41126 ft 498 kts 27°
2026-04-30 18:47 -29.17509 -50.26520 41123 ft 497 kts 27°
2026-04-30 18:48 -29.11962 -50.21785 41127 ft 497 kts 27°
2026-04-30 18:48 -29.06415 -50.17057 41124 ft 497 kts 27°
2026-04-30 18:49 -29.00864 -50.12334 41126 ft 498 kts 27°
2026-04-30 18:49 -28.95347 -50.07644 41126 ft 498 kts 27°
2026-04-30 18:50 -28.89793 -50.02930 41131 ft 497 kts 27°
2026-04-30 18:50 -28.84238 -49.98222 41133 ft 498 kts 27°
2026-04-30 18:51 -28.78685 -49.93523 41132 ft 496 kts 27°
2026-04-30 18:51 -28.73167 -49.88859 41131 ft 497 kts 27°
2026-04-30 18:52 -28.67610 -49.84167 41130 ft 497 kts 27°
2026-04-30 18:52 -28.62047 -49.79476 41110 ft 497 kts 26°
2026-04-30 18:53 -28.56494 -49.74786 41123 ft 497 kts 27°
2026-04-30 18:53 -28.50933 -49.70111 41133 ft 497 kts 27°
2026-04-30 18:54 -28.45404 -49.65470 41137 ft 497 kts 27°
2026-04-30 18:54 -28.39835 -49.60802 41137 ft 497 kts 27°
2026-04-30 18:55 -28.34270 -49.56142 41139 ft 497 kts 27°
2026-04-30 18:55 -28.25914 -49.49155 41136 ft 497 kts 27°
2026-04-30 18:56 -28.17583 -49.42202 41144 ft 498 kts 27°
2026-04-30 18:57 -28.09222 -49.35240 41124 ft 497 kts 27°
2026-04-30 18:57 -28.03673 -49.30552 41137 ft 498 kts 28°
2026-04-30 18:58 -27.95394 -49.23493 41127 ft 499 kts 28°
2026-04-30 18:59 -27.87068 -49.16442 41127 ft 497 kts 27°
2026-04-30 19:00 -27.75856 -49.07441 41116 ft 496 kts 26°
2026-04-30 19:01 -27.64613 -48.98369 41127 ft 497 kts 27°
2026-04-30 19:02 -27.56277 -48.91492 41118 ft 497 kts 27°
2026-04-30 19:03 -27.45153 -48.82339 41116 ft 495 kts 27°
2026-04-30 19:04 -27.34043 -48.73239 41103 ft 496 kts 27°
2026-04-30 19:05 -27.22927 -48.64095 41114 ft 495 kts 28°
2026-04-30 19:06 -27.11910 -48.54975 41098 ft 493 kts 27°
2026-04-30 19:06 -27.03559 -48.48248 41094 ft 493 kts 27°
2026-04-30 19:07 -26.95208 -48.41525 41066 ft 493 kts 27°
2026-04-30 19:08 -26.84129 -48.32609 41095 ft 491 kts 27°
2026-04-30 19:09 -26.75798 -48.25920 41102 ft 491 kts 27°
2026-04-30 19:09 -26.70243 -48.21464 41096 ft 491 kts 27°
2026-04-30 19:10 -26.59181 -48.12560 41102 ft 492 kts 28°
2026-04-30 19:11 -26.50849 -48.05867 41097 ft 492 kts 27°
2026-04-30 19:12 -26.45297 -48.01414 41099 ft 491 kts 27°
2026-04-30 19:12 -26.39779 -47.96995 41099 ft 491 kts 28°
2026-04-30 19:13 -26.28669 -47.88113 41093 ft 491 kts 28°
2026-04-30 19:14 -26.23114 -47.83679 41094 ft 491 kts 28°
2026-04-30 19:14 -26.17597 -47.79281 41083 ft 491 kts 28°
2026-04-30 19:15 -26.12044 -47.74860 41091 ft 491 kts 28°
2026-04-30 19:15 -26.03706 -47.68232 41092 ft 491 kts 27°
2026-04-30 19:16 -25.98146 -47.63819 41087 ft 491 kts 28°
2026-04-30 19:17 -25.89847 -47.57241 41091 ft 491 kts 28°
2026-04-30 19:17 -25.81504 -47.50642 41092 ft 491 kts 28°
2026-04-30 19:18 -25.73191 -47.44077 41078 ft 491 kts 28°
2026-04-30 19:19 -25.67625 -47.39687 41075 ft 491 kts 28°
2026-04-30 19:19 -25.59267 -47.33107 41081 ft 491 kts 28°
2026-04-30 19:20 -25.53692 -47.28723 41082 ft 492 kts 28°
2026-04-30 19:21 -25.45363 -47.22184 41083 ft 492 kts 28°
2026-04-30 19:22 -25.34202 -47.13438 41077 ft 492 kts 28°
2026-04-30 19:23 -25.17483 -47.00376 41075 ft 492 kts 28°
2026-04-30 19:24 -25.08942 -46.94204 41078 ft 487 kts 23°
2026-04-30 19:25 -24.94370 -46.84822 41082 ft 487 kts 23°
2026-04-30 19:26 -24.82713 -46.77206 41074 ft 487 kts 23°
2026-04-30 19:27 -24.74010 -46.71522 41065 ft 487 kts 23°
2026-04-30 19:28 -24.65271 -46.65827 41077 ft 486 kts 23°
2026-04-30 19:28 -24.59232 -46.62767 41078 ft 469 kts
2026-04-30 19:29 -24.52954 -46.61460 41078 ft 460 kts 360°
2026-04-30 19:30 -24.40272 -46.59767 41079 ft 459 kts 359°
2026-04-30 19:31 -24.27632 -46.58077 41084 ft 459 kts 359°
2026-04-30 19:31 -24.18123 -46.56776 41077 ft 459 kts 359°
2026-04-30 19:32 -24.11784 -46.55911 41085 ft 459 kts 359°
2026-04-30 19:32 -24.05491 -46.55053 41084 ft 459 kts 359°
2026-04-30 19:33 -23.99153 -46.54190 41069 ft 459 kts 360°
2026-04-30 19:33 -23.92816 -46.53328 41090 ft 459 kts 360°
2026-04-30 19:34 -23.86510 -46.52028 41117 ft 465 kts
2026-04-30 19:35 -23.77150 -46.49327 41131 ft 467 kts
2026-04-30 19:35 -23.70881 -46.47456 41136 ft 467 kts
2026-04-30 19:36 -23.64613 -46.45597 41136 ft 467 kts
2026-04-30 19:36 -23.55250 -46.42845 41113 ft 466 kts
2026-04-30 19:37 -23.48981 -46.41009 41113 ft 466 kts
2026-04-30 19:37 -23.42711 -46.39169 41129 ft 467 kts
2026-04-30 19:38 -23.36425 -46.37472 41124 ft 465 kts
2026-04-30 19:38 -23.30155 -46.35993 41111 ft 464 kts
2026-04-30 19:39 -23.23840 -46.34528 41098 ft 464 kts
2026-04-30 19:39 -23.17531 -46.33043 41055 ft 465 kts
2026-04-30 19:40 -23.11207 -46.31541 41047 ft 465 kts
2026-04-30 19:40 -23.04877 -46.30033 41051 ft 466 kts
2026-04-30 19:41 -22.98596 -46.28540 41053 ft 465 kts
2026-04-30 19:41 -22.92270 -46.27039 41054 ft 466 kts
2026-04-30 19:42 -22.85930 -46.25538 41061 ft 467 kts
2026-04-30 19:42 -22.79586 -46.24026 41065 ft 468 kts
2026-04-30 19:43 -22.73538 -46.21384 41064 ft 480 kts 26°
2026-04-30 19:44 -22.65299 -46.15077 41062 ft 487 kts 35°
2026-04-30 19:44 -22.60099 -46.10375 41066 ft 487 kts 36°
2026-04-30 19:45 -22.54909 -46.05662 41062 ft 487 kts 36°
2026-04-30 19:45 -22.49717 -46.01033 41053 ft 487 kts 35°
2026-04-30 19:46 -22.44472 -45.96407 41051 ft 487 kts 35°
2026-04-30 19:46 -22.39222 -45.91789 41050 ft 486 kts 35°
2026-04-30 19:47 -22.33974 -45.87176 41043 ft 486 kts 36°
2026-04-30 19:47 -22.28766 -45.82600 41043 ft 486 kts 36°
2026-04-30 19:48 -22.23505 -45.78026 41039 ft 486 kts 35°
2026-04-30 19:48 -22.18229 -45.73472 41039 ft 485 kts 35°
2026-04-30 19:49 -22.12956 -45.68926 41040 ft 485 kts 35°
2026-04-30 19:49 -22.05092 -45.62148 41040 ft 485 kts 35°
2026-04-30 19:50 -21.99823 -45.57609 41034 ft 485 kts 36°
2026-04-30 19:50 -21.94560 -45.53080 41033 ft 484 kts 36°
2026-04-30 19:51 -21.89300 -45.48558 41036 ft 484 kts 36°
2026-04-30 19:51 -21.84074 -45.44070 41034 ft 484 kts 36°
2026-04-30 19:52 -21.78811 -45.39554 41035 ft 484 kts 36°
2026-04-30 19:52 -21.73547 -45.35042 41032 ft 484 kts 36°
2026-04-30 19:53 -21.68287 -45.30538 41036 ft 483 kts 36°
2026-04-30 19:53 -21.63068 -45.26073 41035 ft 482 kts 36°
2026-04-30 19:54 -21.57814 -45.21583 41038 ft 483 kts 36°
2026-04-30 19:54 -21.52558 -45.17095 41036 ft 482 kts 36°
2026-04-30 19:55 -21.47309 -45.12617 41040 ft 482 kts 36°
2026-04-30 19:55 -21.42063 -45.08145 41033 ft 482 kts 36°
2026-04-30 19:56 -21.36851 -45.03708 41037 ft 481 kts 36°
2026-04-30 19:56 -21.31608 -44.99248 41039 ft 480 kts 36°
2026-04-30 19:57 -21.26377 -44.94802 41040 ft 480 kts 36°
2026-04-30 19:57 -21.21149 -44.90362 41040 ft 480 kts 36°
2026-04-30 19:58 -21.15952 -44.85954 41037 ft 480 kts 36°
2026-04-30 19:58 -21.10721 -44.81521 41042 ft 479 kts 36°
2026-04-30 19:59 -21.05493 -44.77099 41044 ft 479 kts 35°
2026-04-30 20:00 -20.97472 -44.70847 41046 ft 477 kts 32°
2026-04-30 20:00 -20.92040 -44.66755 41054 ft 478 kts 32°
2026-04-30 20:01 -20.83913 -44.60588 41057 ft 478 kts 33°
2026-04-30 20:01 -20.78500 -44.56463 41054 ft 478 kts 33°
2026-04-30 20:02 -20.70428 -44.50309 41058 ft 477 kts 33°
2026-04-30 20:03 -20.62319 -44.44139 41064 ft 477 kts 33°
2026-04-30 20:03 -20.56914 -44.40030 41060 ft 477 kts 33°
2026-04-30 20:04 -20.51550 -44.35957 41061 ft 476 kts 33°
2026-04-30 20:05 -20.43452 -44.29806 41066 ft 476 kts 33°
2026-04-30 20:05 -20.35468 -44.23499 41064 ft 476 kts 35°
2026-04-30 20:06 -20.30209 -44.19304 41064 ft 475 kts 34°
2026-04-30 20:06 -20.24905 -44.15092 41060 ft 475 kts 34°
2026-04-30 20:07 -20.19600 -44.10891 41065 ft 475 kts 35°
2026-04-30 20:08 -20.11688 -44.04637 41077 ft 474 kts 35°
2026-04-30 20:08 -20.06393 -44.00459 41082 ft 474 kts 34°
2026-04-30 20:09 -20.01088 -43.96282 41093 ft 474 kts 35°
2026-04-30 20:09 -19.93142 -43.90034 41102 ft 473 kts 35°
2026-04-30 20:10 -19.85236 -43.83839 41099 ft 473 kts 34°
2026-04-30 20:11 -19.77115 -43.77900 41090 ft 472 kts 32°
2026-04-30 20:11 -19.71676 -43.74001 41083 ft 472 kts 33°
2026-04-30 20:12 -19.63569 -43.68158 41086 ft 472 kts 33°
2026-04-30 20:13 -19.58143 -43.64237 41076 ft 472 kts 33°
2026-04-30 20:13 -19.52721 -43.60320 41071 ft 472 kts 33°
2026-04-30 20:14 -19.47296 -43.56405 41063 ft 472 kts 33°
2026-04-30 20:14 -19.41904 -43.52518 41074 ft 472 kts 33°
2026-04-30 20:15 -19.36478 -43.48610 41074 ft 472 kts 33°
2026-04-30 20:15 -19.31054 -43.44696 41056 ft 472 kts 34°
2026-04-30 20:16 -19.25754 -43.40593 41060 ft 472 kts 36°
2026-04-30 20:16 -19.20518 -43.36385 41068 ft 472 kts 36°
2026-04-30 20:17 -19.15318 -43.32214 41052 ft 472 kts 36°
2026-04-30 20:17 -19.10065 -43.28034 41067 ft 472 kts 36°
2026-04-30 20:18 -19.04808 -43.23868 41044 ft 472 kts 36°
2026-04-30 20:18 -18.99546 -43.19703 41060 ft 472 kts 36°
2026-04-30 20:19 -18.94322 -43.15571 41047 ft 472 kts 36°
2026-04-30 20:19 -18.89062 -43.11412 41057 ft 472 kts 36°
2026-04-30 20:20 -18.83806 -43.07259 41059 ft 472 kts 36°
2026-04-30 20:20 -18.78545 -43.03106 41067 ft 472 kts 36°
2026-04-30 20:21 -18.73328 -42.98986 41053 ft 471 kts 36°
2026-04-30 20:21 -18.68075 -42.94838 41060 ft 472 kts 36°
2026-04-30 20:22 -18.62820 -42.90692 41050 ft 472 kts 36°
2026-04-30 20:22 -18.57567 -42.86551 41061 ft 471 kts 36°
2026-04-30 20:23 -18.52320 -42.82419 41048 ft 471 kts 36°
2026-04-30 20:23 -18.47108 -42.78322 41064 ft 471 kts 36°
2026-04-30 20:24 -18.41859 -42.74200 41048 ft 471 kts 36°
2026-04-30 20:24 -18.36608 -42.70080 41053 ft 470 kts 36°
2026-04-30 20:25 -18.28738 -42.63910 41054 ft 470 kts 36°
2026-04-30 20:26 -18.20903 -42.57774 41051 ft 470 kts 36°
2026-04-30 20:26 -18.13031 -42.51617 41041 ft 470 kts 36°
2026-04-30 20:27 -18.02582 -42.43454 41050 ft 469 kts 36°
2026-04-30 20:28 -17.92096 -42.35276 41055 ft 469 kts 36°
2026-04-30 20:30 -17.79012 -42.25088 41064 ft 470 kts 36°
2026-04-30 20:31 -17.63268 -42.12855 41061 ft 469 kts 36°
2026-04-30 20:32 -17.50184 -42.02709 41064 ft 469 kts 36°
2026-04-30 20:33 -17.42322 -41.96618 41069 ft 468 kts 36°
2026-04-30 20:34 -17.34502 -41.90560 41064 ft 468 kts 36°
2026-04-30 20:35 -17.26651 -41.84485 41064 ft 467 kts 36°
2026-04-30 20:35 -17.18807 -41.78422 41049 ft 467 kts 36°
2026-04-30 20:36 -17.13614 -41.74412 41060 ft 467 kts 37°
2026-04-30 20:37 -17.05774 -41.68363 41065 ft 466 kts 37°
2026-04-30 20:37 -17.00554 -41.64340 41060 ft 466 kts 37°
2026-04-30 20:38 -16.95331 -41.60317 41056 ft 466 kts 37°
2026-04-30 20:38 -16.90144 -41.56324 41057 ft 466 kts 37°
2026-04-30 20:39 -16.82310 -41.50300 41054 ft 466 kts 37°
2026-04-30 20:40 -16.74483 -41.44286 41049 ft 466 kts 37°
2026-04-30 20:40 -16.69299 -41.40305 41043 ft 466 kts 37°
2026-04-30 20:41 -16.61504 -41.34263 41049 ft 465 kts 37°
2026-04-30 20:41 -16.56313 -41.30232 41038 ft 465 kts 37°
2026-04-30 20:42 -16.51120 -41.26205 41047 ft 466 kts 37°
2026-04-30 20:43 -16.43355 -41.20193 41041 ft 465 kts 37°
2026-04-30 20:43 -16.38164 -41.16177 41044 ft 465 kts 37°
2026-04-30 20:44 -16.30376 -41.10158 41040 ft 465 kts 37°
2026-04-30 20:45 -16.20027 -41.02168 41044 ft 464 kts 37°
2026-04-30 20:45 -16.14840 -40.98168 41044 ft 464 kts 37°
2026-04-30 20:46 -16.04469 -40.90176 41041 ft 464 kts 37°
2026-04-30 20:47 -15.96723 -40.84215 41041 ft 463 kts 37°
2026-04-30 20:48 -15.88956 -40.78244 41040 ft 463 kts 37°
2026-04-30 20:48 -15.83775 -40.74264 41039 ft 463 kts 37°
2026-04-30 20:49 -15.78629 -40.70313 41039 ft 463 kts 37°
2026-04-30 20:50 -15.70862 -40.64355 41045 ft 462 kts 37°
2026-04-30 20:50 -15.65691 -40.60391 41037 ft 462 kts 37°
2026-04-30 20:51 -15.60554 -40.56457 41039 ft 462 kts 37°
2026-04-30 20:51 -15.52795 -40.50518 41032 ft 462 kts 37°
2026-04-30 20:52 -15.47627 -40.46567 41026 ft 461 kts 37°
2026-04-30 20:53 -15.39911 -40.40670 41032 ft 462 kts 37°
2026-04-30 20:53 -15.34740 -40.36722 41024 ft 462 kts 37°
2026-04-30 20:54 -15.26987 -40.30808 41029 ft 461 kts 37°
2026-04-30 20:55 -15.19242 -40.24905 41029 ft 461 kts 37°
2026-04-30 20:55 -15.14110 -40.20998 41025 ft 461 kts 37°
2026-04-30 20:56 -15.06362 -40.15103 41025 ft 461 kts 37°
2026-04-30 20:57 -14.98616 -40.09214 41023 ft 460 kts 37°
2026-04-30 20:57 -14.93488 -40.05319 41016 ft 460 kts 37°
2026-04-30 20:58 -14.85741 -39.99439 41031 ft 461 kts 37°
2026-04-30 20:58 -14.80574 -39.95520 41027 ft 461 kts 37°
2026-04-30 20:59 -14.72860 -39.89674 41030 ft 460 kts 37°
2026-04-30 21:00 -14.62510 -39.81839 40784 ft 466 kts 37°
2026-04-30 21:01 -14.58145 -39.78536 39758 ft 471 kts 38°
2026-04-30 21:01 -14.55494 -39.76531 39115 ft 474 kts 38°
2026-04-30 21:01 -14.49285 -39.71840 37551 ft 477 kts 38°
2026-04-30 21:02 -14.46605 -39.69816 36879 ft 478 kts 38°
2026-04-30 21:02 -14.44791 -39.68446 36425 ft 478 kts 38°
2026-04-30 21:02 -14.42140 -39.66445 35772 ft 479 kts 38°
2026-04-30 21:02 -14.39447 -39.64413 35106 ft 480 kts 38°
2026-04-30 21:03 -14.36751 -39.62378 34453 ft 480 kts 38°
2026-04-30 21:03 -14.34051 -39.60342 33742 ft 481 kts 38°
2026-04-30 21:03 -14.31363 -39.58283 32964 ft 481 kts 40°
2026-04-30 21:03 -14.28767 -39.56102 32184 ft 481 kts 42°
2026-04-30 21:04 -14.26201 -39.53883 31419 ft 482 kts 42°
2026-04-30 21:04 -14.23640 -39.51665 30774 ft 480 kts 42°
2026-04-30 21:04 -14.18603 -39.47313 29612 ft 471 kts 42°
2026-04-30 21:05 -14.16107 -39.45162 29017 ft 465 kts 42°
2026-04-30 21:05 -14.13637 -39.43035 28441 ft 460 kts 42°
2026-04-30 21:05 -14.11195 -39.40933 27854 ft 455 kts 42°
2026-04-30 21:05 -14.08779 -39.38854 27257 ft 451 kts 42°
2026-04-30 21:06 -14.06390 -39.36799 26690 ft 446 kts 42°
2026-04-30 21:06 -14.04022 -39.34763 26138 ft 441 kts 42°
2026-04-30 21:06 -14.01689 -39.32758 25502 ft 432 kts 42°
2026-04-30 21:06 -13.99435 -39.30822 24661 ft 422 kts 42°
2026-04-30 21:07 -13.97223 -39.28923 24104 ft 406 kts 42°
2026-04-30 21:07 -13.95100 -39.27102 23590 ft 389 kts 42°
2026-04-30 21:07 -13.93059 -39.25350 23043 ft 375 kts 42°
2026-04-30 21:07 -13.91097 -39.23666 22568 ft 360 kts 42°
2026-04-30 21:08 -13.89187 -39.22026 22111 ft 357 kts 43°
2026-04-30 21:08 -13.87275 -39.20382 21647 ft 359 kts 42°
2026-04-30 21:08 -13.85354 -39.18732 21190 ft 361 kts 42°
2026-04-30 21:08 -13.83428 -39.17079 20725 ft 360 kts 42°
2026-04-30 21:09 -13.81533 -39.15453 20270 ft 359 kts 42°
2026-04-30 21:09 -13.79614 -39.13808 19809 ft 359 kts 42°
2026-04-30 21:09 -13.77698 -39.12166 19342 ft 358 kts 42°
2026-04-30 21:09 -13.75786 -39.10527 18879 ft 358 kts 42°
2026-04-30 21:10 -13.73877 -39.08892 18418 ft 357 kts 42°
2026-04-30 21:10 -13.71970 -39.07258 17907 ft 357 kts 42°
2026-04-30 21:10 -13.70065 -39.05636 17431 ft 355 kts 41°
2026-04-30 21:10 -13.68145 -39.04045 16924 ft 354 kts 41°
2026-04-30 21:11 -13.66227 -39.02469 16471 ft 352 kts 41°
2026-04-30 21:11 -13.64345 -39.00924 16003 ft 350 kts 41°
2026-04-30 21:11 -13.62447 -38.99366 15516 ft 349 kts 41°
2026-04-30 21:11 -13.60555 -38.97812 15056 ft 347 kts 40°
2026-04-30 21:12 -13.58673 -38.96267 14599 ft 345 kts 40°
2026-04-30 21:12 -13.56803 -38.94731 14147 ft 344 kts 40°
2026-04-30 21:12 -13.54939 -38.93201 13659 ft 342 kts 40°
2026-04-30 21:12 -13.53084 -38.91679 13178 ft 340 kts 40°
2026-04-30 21:13 -13.51248 -38.90173 12737 ft 336 kts 40°
2026-04-30 21:13 -13.49455 -38.88701 12286 ft 333 kts 40°
2026-04-30 21:13 -13.47654 -38.87225 11850 ft 330 kts 40°
2026-04-30 21:13 -13.45868 -38.85760 11407 ft 327 kts 40°
2026-04-30 21:14 -13.44096 -38.84307 10951 ft 325 kts 40°
2026-04-30 21:14 -13.42334 -38.82862 10511 ft 323 kts 40°
2026-04-30 21:14 -13.40596 -38.81439 10243 ft 313 kts 40°
2026-04-30 21:14 -13.38939 -38.80082 10172 ft 297 kts 41°
2026-04-30 21:15 -13.37359 -38.78788 10043 ft 285 kts 41°
2026-04-30 21:15 -13.35832 -38.77534 9795 ft 280 kts 41°
2026-04-30 21:15 -13.34306 -38.76279 9382 ft 281 kts 41°
2026-04-30 21:15 -13.32805 -38.75045 9048 ft 279 kts 41°
2026-04-30 21:16 -13.31295 -38.73806 8748 ft 277 kts 41°
2026-04-30 21:16 -13.29798 -38.72578 8422 ft 275 kts 41°
2026-04-30 21:16 -13.28309 -38.71356 8092 ft 273 kts 41°
2026-04-30 21:16 -13.26826 -38.70139 7760 ft 272 kts 41°
2026-04-30 21:17 -13.25348 -38.68927 7424 ft 271 kts 41°
2026-04-30 21:17 -13.23875 -38.67719 7102 ft 271 kts 41°
2026-04-30 21:17 -13.22405 -38.66514 6775 ft 270 kts 41°
2026-04-30 21:17 -13.20959 -38.65329 6440 ft 270 kts 41°
2026-04-30 21:18 -13.19494 -38.64128 6094 ft 269 kts 41°
2026-04-30 21:18 -13.18034 -38.62932 5758 ft 268 kts 41°
2026-04-30 21:18 -13.16580 -38.61741 5438 ft 267 kts 41°
2026-04-30 21:18 -13.15131 -38.60555 5099 ft 266 kts 41°
2026-04-30 21:19 -13.13686 -38.59378 4869 ft 266 kts 41°
2026-04-30 21:19 -13.12222 -38.58185 4743 ft 271 kts 41°
2026-04-30 21:19 -13.10743 -38.56983 4593 ft 271 kts 41°
2026-04-30 21:19 -13.09268 -38.55785 4445 ft 270 kts 41°
2026-04-30 21:20 -13.07816 -38.54605 4294 ft 270 kts 41°
2026-04-30 21:20 -13.06346 -38.53411 4138 ft 269 kts 41°
2026-04-30 21:20 -13.04836 -38.52273 4023 ft 271 kts 33°
2026-04-30 21:20 -13.03046 -38.51584 3459 ft 281 kts 14°
2026-04-30 21:21 -13.01129 -38.51264 3171 ft 277 kts 10°
2026-04-30 21:21 -12.99224 -38.51004 2781 ft 276 kts 10°
2026-04-30 21:21 -12.95598 -38.50057 2103 ft 261 kts 41°
2026-04-30 21:22 -12.94489 -38.48680 1979 ft 243 kts 62°
2026-04-30 21:22 -12.93306 -38.44410 1740 ft 177 kts 82°
2026-04-30 21:23 -12.93068 -38.43265 1707 ft 152 kts 82°
2026-04-30 21:23 -12.92861 -38.42278 1702 ft 136 kts 82°
2026-04-30 21:23 -12.92473 -38.40414 1374 ft 133 kts 81°
2026-04-30 21:24 -12.92269 -38.39491 1214 ft 133 kts 82°
2026-04-30 21:24 -12.92083 -38.38568 1004 ft 132 kts 83°
2026-04-30 21:24 -12.91911 -38.37644 827 ft 131 kts 83°
2026-04-30 21:24 -12.91729 -38.36741 640 ft 130 kts 82°
2026-04-30 21:25 -12.91382 -38.34926 322 ft 129 kts 80°
2026-04-30 21:25 -12.91198 -38.34036 146 ft 126 kts 82°
2026-04-30 21:25 -12.91032 -38.33160 48 ft 120 kts 80°
2026-04-30 21:26 -12.90816 -38.32062 49 ft 40 kts 78°
2026-04-30 21:26 -12.90771 -38.31831 51 ft 20 kts 79°
2026-04-30 21:27 -12.90891 -38.31725 54 ft 11 kts 209°
2026-04-30 21:27 -12.90920 -38.31791 53 ft 10 kts 256°
2026-04-30 21:27 -12.90940 -38.31869 57 ft 13 kts 255°
2026-04-30 21:28 -12.90986 -38.32080 50 ft 18 kts 258°
2026-04-30 21:28 -12.91013 -38.32214 52 ft 21 kts 259°
2026-04-30 21:28 -12.91074 -38.32519 56 ft 23 kts 259°
2026-04-30 21:29 -12.91108 -38.32690 50 ft 26 kts 258°
2026-04-30 21:29 -12.91262 -38.33113 47 ft 15 kts 176°
2026-04-30 21:30 -12.91462 -38.33085 47 ft 12 kts 196°
2026-04-30 21:31 -12.91556 -38.33196 47 ft 7 kts 255°
2026-04-30 21:31 -12.91550 -38.33273 47 ft 3 kts 329°
2026-04-30 21:32 -12.91516 -38.33283 47 ft 5 kts 349°
2026-04-30 21:32 -12.91488 -38.33288 47 ft 3 kts 351°
2026-04-30 21:32 -12.91483 -38.33289 47 ft 0 kts 351°